Location: Newark
(54.6833°N, 25.2833°E)
Time: 22:26:41
(UTC+00:00)

Transit 4A - Visible Passes

Search period start: 15 November 2019 00:00
Search period end: 25 November 2019 00:00
Orbit: 868 x 976 km, 66.8° (Epoch: 14 November)

Date Brightness Start Highest point End Pass type
(mag) Time Alt. Az. Time Alt. Az. Time Alt. Az.
15 Nov 9.7 01:14:16 23° NNE 01:14:16 23° NNE 01:17:28 10° NE visible
15 Nov 9.2 02:57:46 22° NNW 03:00:33 31° NNE 03:05:46 10° E visible
15 Nov 8.1 04:41:53 10° NW 04:47:54 70° NE 04:53:45 10° SE visible
16 Nov 9.6 01:23:29 24° NNE 01:23:29 24° NNE 01:27:08 10° NE visible
16 Nov 9.0 03:07:01 21° NNW 03:10:12 35° NNE 03:15:34 10° E visible
16 Nov 7.9 04:51:15 10° NW 04:57:17 89° NE 05:03:08 10° SE visible
16 Nov 10.7 23:49:13 10° NE 23:49:13 10° NE 23:49:18 10° NE visible
17 Nov 9.5 01:32:44 25° NNE 01:32:44 25° NNE 01:36:51 10° ENE visible
17 Nov 8.8 03:16:15 21° NNW 03:19:49 41° NNE 03:25:20 10° E visible
17 Nov 7.9 05:00:40 10° NW 05:06:36 71° SW 05:12:24 10° SSE visible
17 Nov 10.6 23:58:29 11° NE 23:58:29 11° NE 23:58:47 10° NE visible
18 Nov 9.4 01:42:00 27° NNE 01:42:00 27° NNE 01:46:38 10° ENE visible
18 Nov 8.5 03:25:32 21° NNW 03:29:22 49° NE 03:35:02 10° ESE visible
18 Nov 8.1 05:10:05 10° NW 05:15:51 53° WSW 05:21:30 10° SSE visible
19 Nov 10.6 00:07:47 12° NE 00:07:47 12° NE 00:08:20 10° NE visible
19 Nov 9.3 01:51:18 29° NNE 01:51:21 29° NNE 01:56:28 10° ENE visible
19 Nov 8.2 03:34:50 21° NW 03:38:52 60° NE 03:44:39 10° ESE visible
20 Nov 10.5 00:17:06 13° NE 00:17:06 13° NE 00:17:56 10° NE visible
20 Nov 9.1 02:00:38 32° NNE 02:01:02 32° NNE 02:06:17 10° E visible
20 Nov 7.9 03:44:10 21° NW 03:48:17 76° NE 03:54:08 10° SE visible
21 Nov 10.4 00:26:29 15° NE 00:26:29 15° NE 00:27:37 10° NE visible
21 Nov 8.9 02:10:01 36° NNE 02:10:40 37° NNE 02:16:05 10° E visible
21 Nov 7.7 03:53:33 21° NW 03:57:39 84° SW 04:03:29 10° SE visible
22 Nov 10.3 00:35:55 16° NE 00:35:55 16° NE 00:37:22 10° ENE visible
22 Nov 8.6 02:19:27 41° N 02:20:16 43° NNE 02:25:50 10° ESE visible
22 Nov 7.8 04:02:59 21° NW 04:06:57 64° SW 04:12:41 10° SSE visible
23 Nov 10.2 00:45:24 18° ENE 00:45:24 18° ENE 00:47:10 10° ENE visible
23 Nov 8.3 02:28:56 48° N 02:29:48 53° NE 02:35:30 10° ESE visible
23 Nov 8.1 04:12:28 21° NW 04:16:10 48° WSW 04:21:43 10° SSE visible
24 Nov 10.1 00:54:56 19° ENE 00:54:56 19° ENE 00:57:00 10° ENE visible
24 Nov 8.0 02:38:29 59° N 02:39:16 66° NE 02:45:04 10° SE visible
24 Nov 8.4 04:22:01 20° WNW 04:25:20 35° WSW 04:30:32 10° S visible
